Location: Unspecified
(58.7730°N, 5.8460°E)
Time: 16:02:16
(UTC+01:00)

Resurs 1-4 Rocket - Visible Passes

Search period start: 01 March 2015 00:00
Search period end: 11 March 2015 00:00
Orbit: 801 x 814 km, 98.4° (Epoch: 28 February)

Date Brightness Start Highest point End Pass type
(mag) Time Alt. Az. Time Alt. Az. Time Alt. Az.
01 Mar 4.1 03:20:49 10° NE 03:25:04 24° E 03:27:49 17° SE visible
01 Mar 2.0 05:00:16 10° NNE 05:05:37 81° WNW 05:08:55 24° SSW visible
01 Mar 3.3 06:40:44 10° N 06:44:54 23° NW 06:48:57 10° W visible
02 Mar 4.5 02:56:52 10° NE 03:00:13 17° E 03:03:13 12° ESE visible
02 Mar 2.3 04:35:47 10° NNE 04:41:07 73° ESE 04:44:19 25° S visible
02 Mar 3.0 06:16:04 10° N 06:20:41 30° NW 06:25:14 10° WSW visible
03 Mar 4.8 02:33:35 10° ENE 02:35:15 12° ENE 02:37:10 10° E visible
03 Mar 2.8 04:11:22 10° NNE 04:16:33 51° E 04:19:42 23° SSE visible
03 Mar 2.6 05:51:26 10° N 05:56:24 41° WNW 06:00:48 13° SW visible
04 Mar 3.5 03:47:02 10° NNE 03:51:53 36° E 03:55:06 19° SSE visible
04 Mar 2.2 05:26:51 10° NNE 05:32:03 56° WNW 05:36:12 16° SW visible
05 Mar 4.0 03:22:48 10° NE 03:27:08 25° E 03:30:30 14° SE visible
05 Mar 2.0 05:02:18 10° NNE 05:07:39 78° WNW 05:11:36 18° SSW visible
06 Mar 4.5 02:58:49 10° NE 03:02:17 18° E 03:05:52 10° SE visible
06 Mar 2.2 04:37:48 10° NNE 04:43:10 75° ESE 04:46:59 19° S visible
06 Mar 3.0 06:18:07 10° N 06:22:41 29° NW 06:27:10 10° WSW visible
07 Mar 4.8 02:35:25 10° NE 02:37:19 12° ENE 02:39:28 10° E visible
07 Mar 2.8 04:13:23 10° NNE 04:18:36 53° E 04:22:23 18° S visible
07 Mar 2.6 05:53:28 10° N 05:58:25 39° WNW 06:03:17 10° SW visible
08 Mar 3.4 03:49:02 10° NNE 03:53:56 37° E 03:57:47 16° SSE visible
08 Mar 2.3 05:28:53 10° NNE 05:34:04 54° WNW 05:38:53 12° SW visible
09 Mar 4.0 03:24:48 10° NNE 03:29:11 26° E 03:33:10 12° SE visible
09 Mar 2.0 05:04:20 10° NNE 05:09:40 76° WNW 05:14:16 14° SSW visible
10 Mar 4.5 03:00:47 10° NE 03:04:21 18° E 03:08:01 10° SE visible
10 Mar 2.2 04:39:50 10° NNE 04:45:11 78° ESE 04:49:40 15° SSW visible
10 Mar 3.1 06:20:10 10° N 06:24:41 29° NW 06:29:07 10° WSW visible
